Regional Weather Roundup
Issued by NWS State College, PA

Home | Current Version | Previous Version | Text Only | Print | Product List | Glossary Off
Versions: 1 2 3 4 5 6 7 8 9 10 11 12 13 14 15 16 17 18 19 20 21 22 23 24 25 26 27 28 29 30 31 32 33 34 35 36 37 38 39 40 41 42 43 44 45 46 47 48 49 50

000
ASUS41 KCTP 041610
RWRCTP

REGIONAL WEATHER ROUNDUP
NATIONAL WEATHER SERVICE STATE COLLEGE PA
1100 AM EST SUN DEC 04 2016

Note: "fair" indicates few or no clouds below 12,000 feet with no
significant weather and/or obstructions to visibility.

* = STATION THAT DOES NOT REPORT PRECIPITATION /E.G. RAIN...SNOW...ETC/
    THUNDER OR FOG.

PAZ002>004-007>009-013>016-020>023-029>032-041700-
WESTERN PENNSYLVANIA

CITY           SKY/WX    TMP DP  RH WIND       PRES   REMARKS
ERIE           CLOUDY    38  32  79 S6        30.24S
MEADVILLE      CLOUDY    36  30  79 VRB3      30.21F
FRANKLIN*        N/A     36  27  69 E3        30.23F
NEW CASTLE     FAIR      37  29  72 SE5       30.25F
BEAVER COUNTY  NOT AVBL
BUTLER*        CLOUDY    36  27  69 E3        30.25F
PITTSBURGH INT CLOUDY    38  28  67 SE5       30.22F
PITTSBURGH     MOSUNNY   37  25  61 CALM      30.21F
INDIANA*       SUNNY     37  28  70 CALM      30.25F
LATROBE        SUNNY     36  27  69 CALM      30.25S
WASHINGTON CO* MOSUNNY   36  25  64 E3        30.23F
$$

PAZ004>006-010>012-017>019-024>028-033>037-041-042-045-046-049>053-041700-
CENTRAL PENNSYLVANIA

CITY           SKY/WX    TMP DP  RH WIND       PRES   REMARKS
BRADFORD       CLOUDY    34  28  79 N3        30.19F
DUBOIS         CLOUDY    37  28  70 CALM      30.20F
CLEARFIELD     CLOUDY    37  29  72 CALM      30.23F
JOHNSTOWN      CLOUDY    33  27  78 SE3       30.18F
ALTOONA        CLOUDY    37  30  75 CALM      30.23F
STATE COLLEGE  CLOUDY    37  28  70 CALM      30.24R
WILLIAMSPORT   PTSUNNY   43  24  47 W10       30.24F
SELINSGROVE    MOSUNNY   43  28  55 N7        30.26F
FT INDIANTOWN  MOSUNNY   42  25  49 VRB6      30.24F
CAPITAL CITY   CLOUDY    44  25  47 NW7       30.27S
HARRISBURG     CLOUDY    44  28  53 NW7       30.25F
YORK           CLOUDY    42  32  67 W6        30.26F
$$

PAZ038>040-043-044-047-048-054-055-060>062-067>071-041700-
EASTERN PENNSYLVANIA

CITY           SKY/WX    TMP DP  RH WIND       PRES   REMARKS
SCRANTON       MOSUNNY   40  24  53 N8        30.23S
MOUNT POCONO   SUNNY     36  21  54 NW10G17   30.18R
ALLENTOWN      SUNNY     44  25  47 NW8       30.24S
QUAKERTOWN*    SUNNY     43  25  49 NW5       30.24F
READING        MOSUNNY   44  24  45 VRB5      30.24F
LANCASTER      CLOUDY    44  29  55 N7        30.25F
COATESVILLE    MOSUNNY   43  27  52 NW7       30.25F
POTTSTOWN      MOSUNNY   44  25  47 VRB6      30.25F
BLUE BELL      MOSUNNY   43  27  52 N5        30.24F
DOYLESTOWN     SUNNY     46  26  45 W9        30.23S
WILLOW GROVE   NOT AVBL
NORTH PHILA    MOSUNNY   46  26  45 NW5       30.26S
PHILADELPHIA   PTSUNNY   46  25  43 N10       30.26S
$$



USA.gov is the U.S. government's official web portal to all federal, state and local government web resources and services.